Location: Colossi of Memnon
(25.7167°N, 32.6167°E)
Time: 11:22:58
(UTC+00:00)

Meteor 1-31 Rocket - Pass Details

Date: 05 March 2021
Orbit: 519 x 547 km, 97.7° (Epoch: 19 April)

Event Time Altitude Azimuth Distance (km) Brightness Sun altitude
Rises 03:12:47 0° 355° (N) 2,681 6.3 -13.5°
Reaches altitude 10° 03:15:10 10° 341° (NNW) 1,782 5.2 -12.9°
Maximum altitude 03:18:19 25° 286° (WNW) 1,106 3.8 -12.2°
Drops below altitude 10° 03:21:26 10° 231° (SW) 1,761 4.9 -11.5°
Enters shadow 03:21:45 - 228° (SW) 1,870 5.1 -11.4°
